Effective Sunday, March 17, 2024, the National Weather Service National Data Buoy Center will discontinue its Dial-A-Buoy Interactive Voice Response system. For more information, see Service Change Notice 24-06 (PDF).

Station 51WH0 - WHOTS - Woods Hole Ocean Time-series Image indicating link to RSS feed of recent meteorological observations for station 51WH0


Conditions at 51WH0 as of
(12:30 pm HAST)
2230 GMT on 02/23/2024:
     

Click on the graph icon in the table below to see a time series plot of the last five days of that observation.

5-day plot - Wind Direction Wind Direction (WDIR):ESE ( 110 deg true )
5-day plot - Wind Speed Wind Speed (WSPD): 13.6 kts
5-day plot - Atmospheric Pressure Atmospheric Pressure (PRES):30.09 in
5-day plot - Air Temperature Air Temperature (ATMP): 73.9 °F
5-day plot - Water Temperature Water Temperature (WTMP): 74.7 °F
5-day plot - Salinity Salinity (SAL): 35.10 psu
5-day plot - Dew Point Dew Point (DEWP): 65.5 °F
5-day plot - Wind Speed at 10 Meters Wind Speed at 10 meters (WSPD10M): 15.5 kts
5-day plot - Wind Speed at 20 Meters Wind Speed at 20 meters (WSPD20M): 15.5 kts
5-day plot -  Wind Speed, Wind Gust and Atmospheric Pressure Combined plot of Wind Speed, Gust, and Air Pressure
Previous observations
TIME
(HAST)
5-day plot - Wind Direction
WDIR
 
5-day plot - Wind Speed
WSPD
kts
5-day plot - Wind Gust
GST
kts
5-day plot - Wave Height
WVHT
ft
5-day plot - Dominant Wave Period
DPD
sec
5-day plot - Average Wave Period
APD
sec
5-day plot - Mean Wave Direction
MWD
 
5-day plot - Atmospheric Pressure
PRES
in
5-day plot - Pressure Tendency
PTDY
in
5-day plot - Air Temperature
ATMP
°F
5-day plot - Water Temperature
WTMP
°F
5-day plot - Dew Point
DEWP
°F
5-day plot - Salinity
SAL
psu
5-day plot - Visibility
VIS
nmi
5-day plot - Tide (above MLLW)
TIDE
ft
2024-02-23 11:30 amESE 13.6-----30.10- 74.3 74.7 64.9 35.10--
2024-02-23 10:30 amESE 15.5-----30.10- 74.1 74.7 64.6 35.10--
2024-02-23 09:30 amESE 17.5-----30.10- 73.9 74.7 65.3 35.10--
2024-02-23 08:30 amESE 15.5-----30.09- 73.8 74.7 64.9 35.10--
2024-02-23 07:30 amESE 15.5-----30.09- 73.4 74.7 64.8 35.10--
2024-02-23 06:30 amESE 15.5-----30.07- 73.0 74.7 64.0 35.10--
2024-02-23 05:30 amESE 15.5-----30.07- 72.9 74.7 64.6 35.10--
2024-02-23 02:30 am E 17.5-----30.09- 73.2 74.7 63.9 35.10--
2024-02-23 01:30 amESE 17.5-----30.11- 73.2 74.7 65.3 35.10--
2024-02-23 12:30 am E 17.5-----30.12- 73.6 74.7 64.2 35.10--
2024-02-22 11:30 pmESE 17.5-----30.14- 73.6 74.7 64.6 35.10--
2024-02-22 10:30 pm E 17.5-----30.15- 73.4 74.7 63.9 35.10--
2024-02-22 09:30 pm E 17.5-----30.15- 73.6 74.7 64.2 35.10--
2024-02-22 08:30 pm E 17.5-----30.14- 73.9 74.7 63.9 35.10--
2024-02-22 07:30 pmESE 17.5-----30.13- 73.8 74.7 64.2 35.10--
2024-02-22 05:30 pm E 15.5-----30.11- 74.1 74.8 64.4 35.10--
2024-02-22 04:30 pmESE 15.5-----30.11- 74.1 74.8 64.9 35.10--
2024-02-22 03:30 pmESE 13.6-----30.10- 74.7 74.8 62.1 35.10--
2024-02-22 02:30 pmESE 13.6-----30.10- 74.1 74.7 63.3 35.10--
2024-02-22 01:30 pm SE 15.5-----30.13- 73.9 74.7 64.0 35.10--

Ocean Conditions at 51WH0 as of
(12:30 pm HAST)
2230 GMT on 02/23/2024:

These oceanographic data are displayed in rounded times.

     

Click on the graph icon in the table below to see a time series plot of the last five days of that observation.

Depth (DEPTH): 3.3 ft
5-day plot - Ocean Temperature Ocean Temperature (OTMP):74.66 °F
5-day plot - Salinity Salinity (SAL):35.10 psu
Previous observations
TIME
(HAST)
DEPTH
ft
5-day plot - Ocean Temperature
OTMP
°F
5-day plot - Conductivity
COND
mS/cm
5-day plot - Salinity
SAL
psu
5-day plot - Oxygen Concentration
O2%
%
5-day plot - Oxygen Concentration
O2PPM
ppm
5-day plot - Chlorophyll
CLCON
ug/l
5-day plot - Turbidity
TURB
FTU
5-day plot - pH
PH
 
5-day plot - Eh
EH
mv
2024-02-23 11:30 am 3.374.66-35.10------
2024-02-23 10:30 am 3.374.66-35.10------
2024-02-23 09:30 am 3.374.66-35.10------
2024-02-23 08:30 am 3.374.66-35.10------
2024-02-23 07:30 am 3.374.66-35.10------
2024-02-23 06:30 am 3.374.66-35.10------
2024-02-23 05:30 am 3.374.66-35.10------
2024-02-23 02:30 am 3.374.66-35.10------
2024-02-23 01:30 am 3.374.66-35.10------
2024-02-23 12:30 am 3.374.66-35.10------
2024-02-22 11:30 pm 3.374.66-35.10------
2024-02-22 10:30 pm 3.374.66-35.10------
2024-02-22 09:30 pm 3.374.66-35.10------
2024-02-22 08:30 pm 3.374.66-35.10------
2024-02-22 07:30 pm 3.374.66-35.10------
2024-02-22 05:30 pm 3.374.84-35.10------
2024-02-22 04:30 pm 3.374.84-35.10------
2024-02-22 03:30 pm 3.374.84-35.10------
2024-02-22 02:30 pm 3.374.66-35.10------
2024-02-22 01:30 pm 3.374.66-35.10------

Solar Radiation Conditions at 51WH0 as of
(12:30 pm HAST)
2230 GMT on 02/23/2024:
     

Click on the graph icon in the table below to see a time series plot of the last five days of that observation.

5-day plot - Short Wave Radiation 2 Short Wave Radiation 2 (SWRAD): 536.2watts/meter2
5-day plot - Long Wave Radiation Long Wave Radiation (LWRAD): 405.5watts/meter2
Previous observations
TIME
(HAST)
5-day plot - Short Wave Radiation 1
SRAD1
w/m2
5-day plot - Short Wave Radiation 2
SRAD2
w/m2
5-day plot - Long Wave Radiation
LRAD
w/m2
2024-02-23 11:30 am- 567.3 392.9
2024-02-23 10:30 am- 551.6 373.5
2024-02-23 09:30 am- 407.3 362.7
2024-02-23 08:30 am- 160.8 371.3
2024-02-23 07:30 am- 47.3 365.3
2024-02-23 06:30 am- 3.3 365.1
2024-02-23 05:30 am- 7.6 367.4
2024-02-23 02:30 am- 3.1 383.3
2024-02-23 01:30 am- 6.2 366.3
2024-02-23 12:30 am- 2.9 393.7
2024-02-22 11:30 pm- 6.4 378.4
2024-02-22 10:30 pm- 3.0 377.9
2024-02-22 09:30 pm- 2.9 373.7
2024-02-22 08:30 pm- 3.0 389.0
2024-02-22 07:30 pm- 6.2 368.4
2024-02-22 05:30 pm- 197.7 379.8
2024-02-22 04:30 pm- 422.3 366.5
2024-02-22 03:30 pm- 645.1 359.8
2024-02-22 02:30 pm- 757.8 359.4
2024-02-22 01:30 pm- 874.7 362.7